Location: Unspecified
(38.0989°N, 0.6729°W)
Time: 10:16:13
(UTC+02:00)

X-37B - Pass Details

Date: 27 January 2022
Orbit: 329 x 342 km, 45.0° (Epoch: 18 May)

Event Time Altitude Azimuth Distance (km) Brightness Sun altitude
Rises 20:07:50 0° 258° (WSW) 2,110 5.9 -21.3°
Reaches altitude 10° 20:09:54 10° 266° (W) 1,272 4.4 -21.7°
Enters shadow 20:11:46 31° 293° (WNW) 620 2.1 -22.0°
